EST,Max TemperatureF,Mean TemperatureF,Min TemperatureF,Max Dew PointF,MeanDew PointF,Min DewpointF,Max Humidity, Mean Humidity, Min Humidity, Max Sea Level PressureIn, Mean Sea Level PressureIn, Min Sea Level PressureIn, Max VisibilityMiles, Mean VisibilityMiles, Min VisibilityMiles, Max Wind SpeedMPH, Mean Wind SpeedMPH, Max Gust SpeedMPH,PrecipitationIn, CloudCover, Events, WindDirDegrees
2012-12-1,75,66,57,60,58,55,93,75,55,30.29,30.25,30.22,10,10,10,17,5,24,0.00,2,,47
2012-12-2,78,69,60,64,60,58,93,78,52,30.31,30.26,30.22,10,10,5,15,5,17,0.01,2,Rain,68
2012-12-3,77,70,61,62,60,56,97,77,48,30.31,30.27,30.23,10,10,10,13,4,,0.00,5,,52
2012-12-4,78,66,55,59,55,51,100,77,39,30.32,30.26,30.22,10,8,1,13,3,,0.01,0,,62
2012-12-5,75,68,61,63,61,57,93,79,57,30.22,30.14,30.07,10,10,9,14,5,,0.00,6,,32
2012-12-6,79,70,62,63,60,57,94,77,47,30.08,30.03,29.96,10,10,10,12,4,,0.00,2,,41
2012-12-7,77,70,62,64,63,61,100,91,58,30.05,30.00,29.96,10,4,0,10,5,,0.00,6,Fog,28
2012-12-8,81,72,62,67,64,62,100,87,56,30.09,30.04,30.00,10,5,0,9,3,,0.00,6,Fog,58
2012-12-9,80,73,66,67,65,63,97,80,56,30.11,30.06,30.03,10,10,8,9,2,,0.00,3,,255
2012-12-10,80,72,64,72,68,63,100,90,69,30.04,29.96,29.84,10,6,0,17,3,24,0.19,6,Fog-Rain,193
2012-12-11,80,74,68,72,69,66,97,89,69,30.05,29.98,29.91,10,9,2,9,5,,0.00,5,Rain,190
2012-12-12,78,71,64,72,68,62,97,91,76,30.12,30.06,30.02,10,9,1,15,7,20,0.28,7,Rain-Thunderstorm,169
2012-12-13,64,60,55,63,58,52,94,89,77,30.22,30.16,30.07,10,8,2,14,8,22,0.00,8,,356
2012-12-14,70,64,57,59,56,53,94,81,64,30.25,30.19,30.14,10,10,5,15,11,21,0.00,6,,10
2012-12-15,79,68,57,62,58,55,100,85,48,30.19,30.13,30.09,10,6,0,10,6,,0.00,4,Fog,38
2012-12-16,78,69,60,65,62,59,96,79,54,30.09,30.04,29.98,10,10,10,10,3,,0.00,2,,165
2012-12-17,81,72,64,66,64,59,100,87,50,30.00,29.95,29.88,10,6,0,15,5,,0.01,4,Fog,202
2012-12-18,81,70,57,68,60,43,94,71,39,30.05,29.96,29.90,10,10,7,18,9,23,0.00,3,,259
2012-12-19,77,65,53,56,49,43,90,63,31,30.15,30.10,30.05,10,10,10,8,2,,0.00,0,,60
2012-12-20,80,68,55,67,59,55,100,80,47,30.12,30.04,29.95,10,7,1,16,5,28,0.23,1,Fog-Rain,171
2012-12-21,70,59,48,67,37,21,90,52,21,30.23,30.09,29.92,10,10,6,24,16,32,0.04,2,Rain,288
2012-12-22,62,52,41,33,22,14,61,34,18,30.31,30.25,30.22,10,10,10,14,9,18,0.00,0,,305
2012-12-23,66,52,39,40,31,22,82,48,19,30.30,30.23,30.17,10,10,10,5,1,,0.00,0,,59
2012-12-24,71,61,51,51,47,35,78,62,44,30.17,30.09,30.02,10,10,10,17,3,23,0.00,0,,207
2012-12-25,73,64,55,59,56,50,93,73,53,30.07,30.00,29.94,10,10,10,13,3,,0.00,1,,155
2012-12-26,79,66,52,66,59,44,88,76,55,30.01,29.87,29.79,10,9,1,26,14,38,0.22,5,Rain,236
2012-12-27,61,50,39,41,37,33,80,62,39,30.14,30.08,30.02,10,10,10,12,7,,0.00,0,,303
2012-12-28,72,58,43,63,50,40,94,73,38,30.15,30.05,29.96,10,9,3,10,3,,0.30,4,Rain,130
2012-12-29,75,64,52,70,63,43,96,80,55,30.17,29.96,29.89,10,9,3,20,13,26,0.13,5,Rain,241
2012-12-30,55,47,39,42,37,30,74,65,53,30.40,30.34,30.19,10,10,10,17,10,23,0.00,3,,354
2012-12-31,73,60,46,54,49,42,86,69,46,30.38,30.30,30.23,10,10,8,15,5,20,0.00,4,,84